{"data":{"norad_id":52383,"intl_designator":"2022-045BE","name":"STARLINK-3811","alt_names":[],"object_type":"PAYLOAD","status":"ACTIVE","operator":null,"country":"US","launch_date":"2022-04-29","launch_site_code":"AFETR","launch_vehicle":null,"mission":null,"orbit_class":"UNKNOWN","rcs_meters":null,"size_class":null,"mass_kg":null,"dimensions":null,"purposes":["comms"],"wikipedia_slug":null,"has_3d_model":false,"image_url":null,"decayed_at":null,"tle_current":{"epoch":"2026-09-19T21:43:28.001280Z","epoch_age_seconds":111055,"freshness":"FRESH","line1":"1 52383U 22045BE  26262.90518520 -.00001903  00000+0 -46528-4 0  9995","line2":"2 52383  53.1598  12.6211 0001088  89.7748 270.3379 15.33554033245584","mean_motion":15.33554033,"eccentricity":0.0001088,"inclination_deg":53.1598,"raan_deg":12.6211,"arg_perigee_deg":89.7748,"mean_anomaly_deg":270.3379,"bstar":-4.6528e-5,"rev_number":24558,"period_min":93.899528090511,"perigee_km":464.47423109232,"apogee_km":465.96334531183,"semimajor_km":6843.3557882021,"source":"CELESTRAK","updated_at":"2026-09-20T09:00:40.031255Z"}}}